Find Starlink 2220

NORAD ID: 48570 Int'l Des: 2021-041 Owner: SPXS Country: US Constellation: starlink operational
LEOCIRCULARSTARLINK_TYPE

Live Position

Loading 3D Globe...

About Starlink 2220

Description loading...

Upcoming Passes

Passes for default location (London). Set your location on the main map for personalized predictions.

Altitude History

Loading altitude history...

Two-Line Element Set

1 48570U 21041T 26107.09960364 .00046157 00000-0 30654-2 0 9998
2 48570 53.0547 329.1838 0001931 74.8596 285.2607 15.06784051270845
Epoch: Apr 17, 2026 • Age: 14 hours

Current Status

Altitude 564.9 km
Velocity 7.58 km/s
Sub-Earth Point -51.39°S, 165.62°E
Launch Date May 15, 2021
Age 4.9 years
Type internet

Technical Details

Classification Payload
Mass 260.00 kg
Dry Mass 248.00 kg
Total Mass 260.00 kg
Length 0.20 m
Diameter 2.80 m
Span 9.00 m
Shape Box + pan
Manufacturer SPXS
Bus Type Starlink
Phase Status In Orbit
Owner/State SPXS/US

Most Searched